[[{"header":{"parameterUnit":"m.s-1","parameterCategory":2,"la1":30.2992,"la2":30.254,"lo1":-89.0895,"lo2":-89.0443,"dy":0.0025,"dx":0.0025,"nx":19,"ny":19,"refTime":"2026-04-07T09:00:00:Z","depth":"0","parameterNumber":2,"parameterNumberName":"U-component_of_CURRENTS"},"data":[0,0,0,0.2889,0.289,0.2895,0.2895,0.2836,0.2836,0,0,0,0,0,0,0,0,0,0,0,0.2874,0.2874,0.2889,0.289,0.2895,0.2895,0.2836,0.2836,0,0,0,0,0,0,0,0,0,0,0,0.2874,0.2874,0.2874,0.289,0.2896,0.2895,0.2836,0.2845,0,0,0,0,0,0,0,0,0,0,0.2846,0.2833,0.2874,0.2874,0.289,0.2896,0.2895,0.2846,0.2844,0.2819,0,0.2823,0,0.2839,0.2832,0.2831,0,0,0,0.2874,0.2834,0.2855,0.2874,0.289,0.2896,0.2888,0.2845,0.2843,0.2817,0.2823,0.2822,0.2838,0.2831,0.2831,0.2791,0.2791,0,0,0.2874,0.2853,0.2857,0.2854,0.2894,0.2888,0.2889,0.2845,0.283,0.2823,0.2821,0.2837,0.2831,0.283,0.2791,0.2791,0,0,0,0.2883,0.2853,0.2876,0.2856,0.2869,0.2889,0.2889,0.2832,0.2845,0.282,0.2837,0.283,0.283,0.2791,0.2791,0.2826,0,0,0,0.2882,0.286,0.2876,0.286,0.287,0.2857,0.2877,0.2848,0.2844,0.2837,0.283,0.2829,0.2791,0.2791,0.2825,0.2833,0,0,0,0.2873,0.2859,0.2865,0.286,0.2874,0.2859,0.2868,0.2848,0.2855,0.2831,0.2829,0.2791,0.2791,0.2824,0.2831,0.2902,0,0,0,0.2845,0.28,0.2864,0.2813,0.2874,0.2852,0.2869,0.2832,0.2806,0.283,0.2791,0.2791,0.2824,0.283,0.29,0.2895,0.2903,0,0,0.2765,0.279,0.2759,0.2817,0.2798,0.285,0.2834,0.281,0.2804,0.2798,0.2797,0.2826,0.2831,0.2902,0.2896,0.2905,0,0,0,0.2717,0.2714,0.2709,0.2724,0.2736,0.2791,0.2792,0.281,0.282,0.2796,0.2816,0.2818,0.2862,0.2854,0.2861,0.2827,0.2791,0.2791,0.2791,0.2613,0.2643,0.2611,0.2665,0.2676,0.2743,0.2778,0.2814,0.28,0.2821,0.2841,0.2906,0.2895,0.2901,0.2865,0.2837,0.2837,0.2837,0.2837,0.2526,0.2509,0.2581,0.2564,0.2655,0.2675,0.2781,0.2816,0.2897,0.2865,0.2908,0.2882,0.291,0.287,0.2839,0.2839,0.2839,0.2839,0.2838,0.2461,0.2456,0.2469,0.25,0.2562,0.2655,0.2755,0.2844,0.2913,0.2961,0.2984,0.2983,0.2957,0.2999,0.2999,0.3,0.3,0.3,0.3001,0.2379,0.2396,0.2395,0.2441,0.2475,0.2576,0.2746,0.2838,0.2974,0.3018,0.3018,0.2966,0.2956,0.296,0.3006,0.3005,0.3004,0.3004,0.3003,0.2282,0.2314,0.2306,0.2327,0.241,0.2456,0.2653,0.2851,0.2985,0.3048,0.3047,0.3063,0.3059,0.3053,0.3059,0.3128,0.3128,0.3128,0.3128,0.2226,0.224,0.2226,0.224,0.2302,0.2394,0.2482,0.2681,0.2927,0.3009,0.308,0.3022,0.3019,0.3009,0.3003,0.3007,0.3062,0.3061,0.3061,0.2177,0.2188,0.2147,0.2168,0.2224,0.2301,0.2309,0.2438,0.2823,0.3055,0.3038,0.3041,0.295,0.2947,0.2923,0.2918,0.2921,0,0]},{"header":{"parameterUnit":"m.s-1","parameterCategory":2,"la1":30.2992,"la2":30.254,"lo1":-89.0895,"lo2":-89.0443,"dy":0.0025,"dx":0.0025,"nx":19,"ny":19,"refTime":"2026-04-07T09:00:00:Z","depth":"0","parameterNumber":3,"parameterNumberName":"V-component_of_CURRENTS"},"data":[0,0,0,-0.0159,-0.0159,-0.0188,-0.0188,-0.0252,-0.0253,0,0,0,0,0,0,0,0,0,0,0,-0.0144,-0.0143,-0.0159,-0.0159,-0.0188,-0.0188,-0.0252,-0.0253,0,0,0,0,0,0,0,0,0,0,0,-0.0144,-0.0143,-0.0143,-0.0159,-0.0188,-0.0188,-0.0252,-0.0229,0,0,0,0,0,0,0,0,0,0,-0.02,-0.0168,-0.0143,-0.0143,-0.0159,-0.0188,-0.0188,-0.0228,-0.023,-0.024,0,-0.0223,0,-0.0232,-0.0255,-0.0256,0,0,0,-0.0181,-0.0165,-0.0175,-0.0143,-0.0159,-0.0187,-0.0181,-0.0229,-0.0232,-0.0244,-0.0224,-0.0226,-0.0233,-0.0256,-0.0256,-0.0224,-0.0224,0,0,-0.0179,-0.0154,-0.0173,-0.0176,-0.0139,-0.018,-0.0182,-0.0231,-0.0221,-0.0224,-0.0228,-0.0234,-0.0256,-0.0256,-0.0225,-0.0224,0,0,0,-0.016,-0.0153,-0.0162,-0.0173,-0.0172,-0.018,-0.0182,-0.0219,-0.0222,-0.0229,-0.0235,-0.0256,-0.0257,-0.0226,-0.0225,-0.0118,0,0,0,-0.016,-0.014,-0.016,-0.0147,-0.017,-0.0191,-0.0169,-0.0218,-0.0224,-0.0235,-0.0256,-0.0257,-0.0226,-0.0225,-0.0122,-0.0061,0,0,0,-0.0147,-0.0139,-0.0135,-0.0145,-0.0149,-0.019,-0.0196,-0.022,-0.0227,-0.0256,-0.0257,-0.0227,-0.0225,-0.0126,-0.0069,-0.0019,0,0,0,-0.0135,-0.0076,-0.0133,-0.0071,-0.0148,-0.012,-0.0196,-0.019,-0.0204,-0.0257,-0.0226,-0.0225,-0.0128,-0.0074,-0.0023,0.0065,0.0093,0,0,-0.0048,-0.0064,-0.0028,-0.008,-0.0027,-0.012,-0.0071,-0.0129,-0.0187,-0.0218,-0.0217,-0.0121,-0.0069,-0.002,0.0157,0.0183,0,0,0,0.0006,0.0029,0.0038,0.005,0.0038,0.0026,-0.004,-0.0072,-0.0104,-0.0184,-0.0118,-0.0089,-0.0061,-0.0017,0.0003,-0.0104,-0.0217,-0.0218,-0.0218,0.0139,0.012,0.0178,0.0157,0.0169,0.0122,0.0112,0.0053,-0.0019,-0.0015,-0.0001,0.0115,0.0164,0.018,0.0069,-0.0007,-0.0007,-0.0007,-0.0006,0.0254,0.028,0.0261,0.0302,0.0278,0.0296,0.0247,0.0195,0.0181,0.01,0.0121,0.0095,0.0209,0.0082,0.0001,-0.0001,-0.0002,-0.0002,-0.0003,0.0315,0.0328,0.0336,0.0383,0.042,0.0394,0.0458,0.0385,0.0291,0.0316,0.0332,0.0331,0.0217,0.0318,0.0318,0.0319,0.0319,0.0319,0.032,0.0369,0.0382,0.0432,0.0472,0.0517,0.058,0.0573,0.0581,0.0539,0.0471,0.0471,0.0258,0.0213,0.0197,0.0328,0.0326,0.0325,0.0325,0.0324,0.0445,0.0443,0.0527,0.0577,0.0695,0.0826,0.081,0.0848,0.0809,0.0813,0.0512,0.054,0.0513,0.0496,0.0486,0.0684,0.0684,0.0684,0.0684,0.0497,0.0502,0.062,0.0723,0.0858,0.0944,0.1115,0.1113,0.0885,0.0738,0.0598,0.0526,0.0516,0.0481,0.0465,0.045,0.0634,0.0634,0.0634,0.0557,0.0583,0.0682,0.0773,0.0926,0.1091,0.1258,0.1317,0.0943,0.0614,0.0434,0.0436,0.0305,0.0298,0.0216,0.0202,0.0167,0,0]}],[{"header":{"parameterUnit":"m.s-1","parameterCategory":2,"la1":30.2992,"la2":30.254,"lo1":-89.0895,"lo2":-89.0443,"dy":0.0025,"dx":0.0025,"nx":19,"ny":19,"refTime":"2026-04-07T09:00:00:Z","depth":"2","parameterNumber":2,"parameterNumberName":"U-component_of_CURRENTS"},"data":[0,0,0,0.257,0.2572,0.2653,0.2653,0.2671,0.2671,0,0,0,0,0,0,0,0,0,0,0,0.2527,0.2527,0.2569,0.2572,0.2653,0.2653,0.2671,0.2671,0,0,0,0,0,0,0,0,0,0,0,0.2526,0.2527,0.2528,0.2573,0.2653,0.2653,0.2671,0.2626,0,0,0,0,0,0,0,0,0,0,0.2556,0.2544,0.2527,0.2528,0.2573,0.2653,0.2653,0.2625,0.2629,0.2616,0,0.2636,0,0.2668,0.2672,0.2672,0,0,0,0.2553,0.254,0.2561,0.2528,0.2574,0.2653,0.2611,0.2628,0.2632,0.2621,0.2636,0.2638,0.2668,0.2672,0.2672,0.2696,0.2697,0,0,0.2548,0.2539,0.2559,0.2565,0.2604,0.2609,0.2614,0.2631,0.2638,0.2636,0.2639,0.2668,0.2672,0.2672,0.2696,0.2697,0,0,0,0.2549,0.2536,0.2558,0.2563,0.2593,0.2612,0.2618,0.2637,0.2645,0.264,0.2669,0.2672,0.2672,0.2696,0.2696,0.2732,0,0,0,0.2545,0.2538,0.2556,0.2551,0.2593,0.2631,0.2623,0.2643,0.2647,0.2668,0.2672,0.2673,0.2696,0.2696,0.2731,0.2739,0,0,0,0.2522,0.2536,0.2547,0.255,0.2597,0.2632,0.264,0.2644,0.2665,0.2672,0.2673,0.2696,0.2696,0.273,0.2738,0.2802,0,0,0,0.2505,0.2508,0.2547,0.2557,0.2596,0.2623,0.2641,0.266,0.2664,0.2672,0.2696,0.2696,0.2729,0.2736,0.28,0.2761,0.2768,0,0,0.249,0.2506,0.2508,0.2545,0.2568,0.261,0.2643,0.2661,0.2666,0.268,0.2682,0.2731,0.2737,0.2801,0.2782,0.2788,0,0,0,0.249,0.2497,0.2506,0.2539,0.257,0.2623,0.2655,0.2678,0.2711,0.2678,0.2729,0.2731,0.2771,0.2743,0.2748,0.2698,0.2698,0.2698,0.2698,0.2453,0.2477,0.2482,0.2523,0.2556,0.2632,0.2674,0.2715,0.2713,0.274,0.2759,0.2827,0.2796,0.2799,0.2761,0.2761,0.2761,0.2761,0.2761,0.2416,0.2411,0.2469,0.248,0.2554,0.2599,0.2701,0.2736,0.2819,0.279,0.2828,0.2779,0.2806,0.2764,0.2763,0.2763,0.2763,0.2762,0.2762,0.2366,0.2367,0.2387,0.243,0.2498,0.259,0.2687,0.2774,0.2839,0.2885,0.2881,0.288,0.2865,0.2919,0.292,0.292,0.292,0.2921,0.2921,0.2296,0.232,0.2327,0.2384,0.2422,0.2523,0.2685,0.277,0.2882,0.2915,0.2915,0.2881,0.2876,0.2874,0.2926,0.2925,0.2924,0.2924,0.2923,0.2221,0.2248,0.2252,0.2278,0.2365,0.2402,0.259,0.2752,0.2875,0.2917,0.2943,0.2941,0.2932,0.2927,0.2926,0.2989,0.2989,0.2989,0.2989,0.2172,0.2186,0.2181,0.2199,0.2257,0.234,0.2389,0.2515,0.2716,0.2773,0.2781,0.2707,0.2711,0.2685,0.2685,0.2677,0.2675,0.2674,0.2673,0.213,0.2141,0.2108,0.2131,0.2183,0.2242,0.22,0.2169,0.2368,0.2654,0.2653,0.2982,0.2896,0.2892,0.2868,0.2862,0.2857,0,0]},{"header":{"parameterUnit":"m.s-1","parameterCategory":2,"la1":30.2992,"la2":30.254,"lo1":-89.0895,"lo2":-89.0443,"dy":0.0025,"dx":0.0025,"nx":19,"ny":19,"refTime":"2026-04-07T09:00:00:Z","depth":"2","parameterNumber":3,"parameterNumberName":"V-component_of_CURRENTS"},"data":[0,0,0,0.0186,0.0184,0.0078,0.0077,-0.0035,-0.0036,0,0,0,0,0,0,0,0,0,0,0,0.0224,0.0224,0.0186,0.0184,0.0078,0.0077,-0.0035,-0.0036,0,0,0,0,0,0,0,0,0,0,0,0.0225,0.0224,0.0223,0.0183,0.0078,0.0077,-0.0035,0.0037,0,0,0,0,0,0,0,0,0,0,0.0136,0.0172,0.0224,0.0223,0.0183,0.0078,0.0077,0.004,0.0032,0.0023,0,0.0013,0,-0.001,-0.0042,-0.0042,0,0,0,0.0173,0.0178,0.0151,0.0223,0.0182,0.0078,0.0122,0.0035,0.0027,0.0013,0.0011,0.0006,-0.0012,-0.0042,-0.0043,-0.0065,-0.0065,0,0,0.0178,0.02,0.0157,0.0146,0.0163,0.0126,0.0119,0.003,0.0024,0.0011,0.0004,-0.0014,-0.0043,-0.0044,-0.0066,-0.0065,0,0,0,0.0203,0.0204,0.0179,0.0151,0.0132,0.0123,0.0115,0.0028,0.002,0.0002,-0.0015,-0.0044,-0.0045,-0.0066,-0.0065,0.003,0,0,0,0.0206,0.0219,0.0182,0.0193,0.0134,0.0076,0.0116,0.0026,0.0015,-0.0014,-0.0044,-0.0046,-0.0067,-0.0066,0.0026,0.0084,0,0,0,0.0228,0.0221,0.0212,0.0195,0.0153,0.0076,0.0063,0.0023,0.0006,-0.0042,-0.0046,-0.0067,-0.0066,0.0023,0.0078,0.012,0,0,0,0.0249,0.0245,0.0213,0.0208,0.0155,0.0128,0.0063,0.0028,-0.0006,-0.0044,-0.0067,-0.0066,0.0022,0.0074,0.0116,0.0185,0.0208,0,0,0.0259,0.0246,0.0246,0.0215,0.0216,0.0142,0.0143,0.0065,0.0006,-0.0039,-0.004,0.0027,0.0077,0.0119,0.0243,0.0265,0,0,0,0.026,0.0267,0.026,0.0251,0.0217,0.0209,0.0129,0.0097,0.0051,-0.0009,0.0021,0.005,0.0073,0.0106,0.0123,-0.0061,-0.0061,-0.0061,-0.0061,0.0312,0.03,0.0318,0.0308,0.0298,0.025,0.0236,0.018,0.0108,0.0106,0.0122,0.0215,0.0251,0.0265,0.0106,0.0107,0.0107,0.0107,0.0108,0.0364,0.0383,0.0383,0.0394,0.0387,0.0386,0.0339,0.0293,0.0275,0.0203,0.022,0.0199,0.029,0.0115,0.0114,0.0113,0.0112,0.0111,0.0111,0.0411,0.0422,0.0426,0.0465,0.0497,0.0474,0.0532,0.0463,0.0373,0.0394,0.04,0.0399,0.0279,0.0394,0.0394,0.0394,0.0395,0.0395,0.0395,0.0456,0.0465,0.0509,0.0543,0.0586,0.0645,0.0638,0.0641,0.0591,0.0523,0.0523,0.0311,0.0302,0.0295,0.0403,0.0401,0.04,0.04,0.0399,0.0515,0.0518,0.0591,0.0638,0.0751,0.0869,0.0853,0.0871,0.0831,0.0824,0.0585,0.0578,0.0554,0.0539,0.0537,0.0702,0.0702,0.0702,0.0702,0.0561,0.0566,0.0675,0.0774,0.09,0.0977,0.1113,0.1075,0.0928,0.0809,0.0804,0.0754,0.074,0.0721,0.0702,0.07,0.0907,0.0908,0.0908,0.0614,0.0639,0.0731,0.0819,0.0964,0.1109,0.1227,0.1182,0.0966,0.0912,0.0801,0.0723,0.0633,0.0618,0.0568,0.0546,0.0534,0,0]}],[{"header":{"parameterUnit":"m.s-1","parameterCategory":2,"la1":30.2992,"la2":30.254,"lo1":-89.0895,"lo2":-89.0443,"dy":0.0025,"dx":0.0025,"nx":19,"ny":19,"refTime":"2026-04-07T09:00:00:Z","depth":"4","parameterNumber":2,"parameterNumberName":"U-component_of_CURRENTS"},"data":[0,0,0,0.1716,0.172,0.1916,0.1917,0.2068,0.2069,0,0,0,0,0,0,0,0,0,0,0,0.1657,0.1659,0.1716,0.1721,0.1916,0.1917,0.2068,0.2069,0,0,0,0,0,0,0,0,0,0,0,0.1657,0.1659,0.1661,0.1721,0.1916,0.1917,0.2068,0.1945,0,0,0,0,0,0,0,0,0,0,0.1767,0.1729,0.1658,0.1661,0.1723,0.1915,0.1917,0.194,0.1952,0.1951,0,0.1998,0,0.2032,0.2077,0.2077,0,0,0,0.1721,0.1719,0.1769,0.1661,0.1724,0.1915,0.1828,0.1948,0.1961,0.1967,0.2001,0.2007,0.2035,0.2078,0.2078,0.22,0.22,0,0,0.171,0.1691,0.176,0.1778,0.1795,0.1822,0.1834,0.1957,0.1978,0.2001,0.2011,0.2037,0.2078,0.2079,0.22,0.22,0,0,0,0.1679,0.1683,0.1733,0.1771,0.1813,0.1827,0.1841,0.1973,0.1991,0.2013,0.2039,0.2079,0.2081,0.2199,0.22,0.2239,0,0,0,0.1672,0.1665,0.1728,0.1718,0.1811,0.1909,0.1855,0.1982,0.1997,0.2038,0.2079,0.2082,0.2199,0.2199,0.2237,0.2245,0,0,0,0.1645,0.1662,0.169,0.1717,0.1801,0.1908,0.1934,0.1987,0.2013,0.2077,0.2082,0.2198,0.2199,0.2235,0.2242,0.2293,0,0,0,0.1609,0.1661,0.1691,0.1758,0.1799,0.1904,0.1934,0.203,0.209,0.208,0.2199,0.22,0.2235,0.224,0.2291,0.2016,0,0,0,0.1645,0.1665,0.1701,0.1732,0.1822,0.1876,0.1976,0.2073,0.21,0.215,0.2154,0.2238,0.2242,0.2293,0.2081,0,0,0,0,0.1692,0.1719,0.1752,0.1818,0.1892,0.1972,0.2062,0.2104,0.2194,0.2141,0.2248,0.225,0.2281,0.2114,0.2205,0.2205,0.2205,0.2204,0.2204,0.1699,0.174,0.1797,0.1862,0.1934,0.2052,0.2123,0.2194,0.2219,0.2268,0.229,0.2365,0.219,0.2304,0.2305,0.2305,0.2305,0.2305,0.2305,0.1715,0.1733,0.181,0.1882,0.1973,0.2069,0.2192,0.2243,0.2348,0.2335,0.2365,0.2176,0.2309,0.2309,0.2308,0.2307,0.2307,0.2307,0.2307,0.1674,0.1687,0.1753,0.1855,0.197,0.2092,0.2193,0.2301,0.2378,0.2423,0.2268,0.24,0.2388,0.2457,0.2457,0.2457,0.2458,0.2458,0.2458,0.1593,0.1656,0.1711,0.1829,0.1904,0.203,0.2209,0.2273,0.2382,0.2281,0.245,0.2416,0.2411,0.2398,0.2462,0.2462,0.2461,0.2461,0.246,0.1523,0.1573,0.1633,0.1703,0.1846,0.1907,0.2109,0.2158,0.2213,0.2185,0.2206,0.2217,0.218,0.2182,0.2158,0.2154,0.2151,0.2148,0,0.1466,0.1496,0.1561,0.1624,0.1685,0.1822,0.182,0.1921,0.2013,0.1942,0.223,0.2251,0.2257,0.2215,0.2211,0.2181,0,0,0,0.1422,0.1452,0.1463,0.1541,0.159,0.166,0.1805,0.1769,0.1996,0.1958,0.2065,0.2087,0.2325,0.2475,0.2446,0.244,0.2417,0,0]},{"header":{"parameterUnit":"m.s-1","parameterCategory":2,"la1":30.2992,"la2":30.254,"lo1":-89.0895,"lo2":-89.0443,"dy":0.0025,"dx":0.0025,"nx":19,"ny":19,"refTime":"2026-04-07T09:00:00:Z","depth":"4","parameterNumber":3,"parameterNumberName":"V-component_of_CURRENTS"},"data":[0,0,0,0.0278,0.0277,0.021,0.021,0.0107,0.0106,0,0,0,0,0,0,0,0,0,0,0,0.03,0.03,0.0278,0.0276,0.021,0.021,0.0107,0.0106,0,0,0,0,0,0,0,0,0,0,0,0.03,0.03,0.0299,0.0276,0.021,0.021,0.0107,0.0159,0,0,0,0,0,0,0,0,0,0,0.0225,0.0255,0.03,0.0299,0.0276,0.021,0.0209,0.0162,0.0156,0.0136,0,0.0132,0,0.0122,0.01,0.01,0,0,0,0.0265,0.026,0.0241,0.0299,0.0276,0.021,0.0237,0.0158,0.0152,0.0128,0.0131,0.0127,0.012,0.0099,0.0099,0.0052,0.0052,0,0,0.0268,0.0285,0.0246,0.0238,0.0266,0.0239,0.0235,0.0154,0.0151,0.0131,0.0125,0.0118,0.0099,0.0098,0.0051,0.0052,0,0,0,0.0287,0.0288,0.0271,0.0242,0.0234,0.0237,0.0232,0.0155,0.0149,0.0124,0.0117,0.0098,0.0097,0.0051,0.0052,0.0127,0,0,0,0.0288,0.0299,0.0273,0.0281,0.0236,0.0197,0.0235,0.0155,0.0145,0.0118,0.0098,0.0096,0.0051,0.0051,0.0124,0.0173,0,0,0,0.0301,0.0301,0.0295,0.0283,0.0259,0.0198,0.0187,0.0152,0.0142,0.01,0.0096,0.0051,0.0051,0.0122,0.0169,0.0195,0,0,0,0.0317,0.0305,0.0296,0.0285,0.026,0.0231,0.0188,0.0155,0.0123,0.0098,0.0051,0.0052,0.0121,0.0166,0.0192,0.0211,0,0,0,0.0309,0.0305,0.0299,0.0288,0.0281,0.0239,0.0231,0.0169,0.0122,0.0073,0.0072,0.0125,0.0168,0.0194,0.0234,0,0,0,0,0.03,0.0305,0.0298,0.0295,0.0269,0.027,0.0211,0.0186,0.0145,0.0107,0.0112,0.0137,0.0151,0.0153,0.0054,0.0053,0.0053,0.0053,0.0053,0.0323,0.0317,0.0325,0.0323,0.0314,0.0284,0.0274,0.0231,0.0175,0.0172,0.0188,0.0248,0.0252,0.0167,0.0167,0.0167,0.0168,0.0168,0.0168,0.0345,0.0357,0.0369,0.0375,0.038,0.0379,0.0342,0.0311,0.0294,0.0242,0.0251,0.022,0.0175,0.0174,0.0173,0.0172,0.0171,0.0171,0.0171,0.0372,0.0379,0.039,0.0427,0.0461,0.045,0.0494,0.0444,0.0371,0.0386,0.0366,0.0298,0.0303,0.0383,0.0383,0.0384,0.0384,0.0384,0.0385,0.0393,0.0407,0.0448,0.0485,0.0529,0.058,0.0582,0.0575,0.0504,0.0464,0.041,0.032,0.0313,0.0314,0.039,0.0389,0.0388,0.0388,0.0387,0.0419,0.0434,0.0497,0.0544,0.0647,0.0688,0.0699,0.0664,0.0654,0.0606,0.049,0.0484,0.0459,0.0448,0.0453,0.0572,0.0573,0.0573,0,0.0444,0.0453,0.0549,0.0636,0.0727,0.0754,0.0776,0.0754,0.065,0.0635,0.063,0.05,0.0494,0.0465,0.0457,0.0463,0,0,0,0.0473,0.0499,0.0573,0.0656,0.0759,0.0777,0.0782,0.0755,0.0672,0.0659,0.0587,0.0584,0.0504,0.0405,0.0351,0.0342,0.0341,0,0]}]]